Kenai, AK

7:09 PM AKST on February 23, 2017 (GMT -0900)
Kenai Municipal

Weather History for PAEN - November, 2013

Change the Weather History Date:

Saturday, November 2, 2013

  Actual Average Record
Temperature  
Mean Temperature 36 °F -  
Max Temperature 39 °F 34 °F 100 °F (2003)
Min Temperature 32 °F 20 °F -11 °F (1985)
Degree Days  
Heating Degree Days 30    
Moisture  
Dew Point 34 °F    
Average Humidity 90    
Maximum Humidity 96    
Minimum Humidity 82    
Precipitation  
Precipitation 0.00 in - - ()
Sea Level Pressure  
Sea Level Pressure 29.91 in    
Wind  
Wind Speed 8 mph (East)    
Max Wind Speed 14 mph    
Max Gust Speed -    
Visibility 10 miles    
Events      
Averages and records for this station are not official NWS values.
T = Trace of Precipitation, MM = Missing Value Source: NWS Daily Summary

Daily Weather History Graph

Daily Weather History Graph

Search for Another Location

Airport or City:

Trip Planner

Search our weather history database for the weather conditions in past years. The results will help you decide how hot, cold, wet, or windy it might be!

Date:

Astronomy

Nov. 02, 2013 Rise Set
Actual Time 9:33 AM AKDT 6:02 PM AKDT
Civil Twilight 8:47 AM AKDT 6:48 PM AKDT
Nautical Twilight 7:56 AM AKDT 7:39 PM AKDT
Astronomical Twilight 7:07 AM AKDT 8:28 PM AKDT
Moon 8:34 AM AKDT (11/2) 5:43 PM AKDT (11/2)
Length of Visible Light 10h 01m
Length of Day
8h 28m
Waning Crescent, 1% of the Moon is Illuminated
Nov 2
Waning Crescent
Nov 3
New
Nov 9
First Quarter
Nov 17
Full
Nov 25
Last Quarter

Hourly Weather History & Observations

Time (AKDT) Temp. Windchill Dew Point Humidity Pressure Visibility Wind Dir Wind Speed Gust Speed Precip Events Conditions
12:43 AM 37.4 °F 29.8 °F 35.6 °F 93% 30.00 in 10.0 mi South 11.5 mph - N/A   Overcast
12:53 AM 37.9 °F 30.5 °F 36.0 °F 93% 30.01 in 10.0 mi South 11.5 mph - N/A   Overcast
1:21 AM 37.4 °F 28.9 °F 35.6 °F 93% 30.00 in 10.0 mi SSW 13.8 mph - N/A   Overcast
1:53 AM 39.0 °F 32.3 °F 35.1 °F 86% 30.01 in 10.0 mi SSW 10.4 mph - N/A   Overcast
2:53 AM 37.9 °F 30.5 °F 33.1 °F 83% 30.01 in 10.0 mi SSW 11.5 mph - N/A   Overcast
3:04 AM 37.4 °F 29.8 °F 33.8 °F 87% 30.00 in 10.0 mi SSW 11.5 mph - N/A   Overcast
3:53 AM 37.0 °F 30.4 °F 33.1 °F 86% 30.00 in 10.0 mi SSE 9.2 mph - N/A   Overcast
4:33 AM 37.4 °F 32.1 °F 33.8 °F 87% 29.98 in 10.0 mi SSE 6.9 mph - N/A   Overcast
4:53 AM 37.0 °F 31.6 °F 33.1 °F 86% 29.98 in 10.0 mi South 6.9 mph - N/A   Overcast
5:27 AM 33.8 °F 29.6 °F 32.0 °F 93% 29.95 in 10.0 mi East 4.6 mph - N/A   Mostly Cloudy
5:53 AM 33.1 °F - 32.0 °F 96% 29.96 in 10.0 mi Calm Calm - N/A   Scattered Clouds
6:53 AM 32.0 °F - 30.0 °F 92% 29.95 in 10.0 mi Calm Calm - N/A   Mostly Cloudy
7:10 AM 33.8 °F - 30.2 °F 87% 29.94 in 10.0 mi Calm Calm - N/A   Overcast
7:53 AM 34.0 °F 31.0 °F 32.0 °F 92% 29.94 in 10.0 mi WSW 3.5 mph - N/A   Overcast
8:53 AM 35.1 °F 31.0 °F 33.1 °F 92% 29.93 in 10.0 mi East 4.6 mph - N/A   Overcast
9:53 AM 33.1 °F - 32.0 °F 96% 29.93 in 10.0 mi Calm Calm - N/A   Overcast
10:15 AM 33.8 °F - 32.0 °F 93% 29.92 in 10.0 mi Calm Calm - N/A   Scattered Clouds
10:53 AM 34.0 °F 29.8 °F 32.0 °F 92% 29.93 in 10.0 mi ESE 4.6 mph - N/A   Partly Cloudy
11:53 AM 36.0 °F 32.1 °F 34.0 °F 93% 29.91 in 10.0 mi East 4.6 mph - N/A   Overcast
12:53 PM 37.0 °F 34.5 °F 34.0 °F 89% 29.89 in 10.0 mi ENE 3.5 mph - N/A   Overcast
1:53 PM 37.9 °F 32.7 °F 35.1 °F 89% 29.87 in 10.0 mi NE 6.9 mph - N/A   Overcast
2:53 PM 39.0 °F 34.0 °F 36.0 °F 89% 29.86 in 10.0 mi NNE 6.9 mph - N/A   Overcast
3:53 PM 39.0 °F 32.8 °F 37.0 °F 93% 29.84 in 10.0 mi NNE 9.2 mph - N/A   Overcast
4:53 PM 39.0 °F 32.3 °F 37.0 °F 93% 29.83 in 10.0 mi North 10.4 mph - N/A   Overcast
5:53 PM 39.0 °F 31.4 °F 37.0 °F 93% 29.81 in 10.0 mi North 12.7 mph - N/A   Overcast
6:53 PM 39.0 °F 32.3 °F 37.0 °F 93% 29.80 in 10.0 mi North 10.4 mph - N/A   Overcast
7:53 PM 39.0 °F 31.8 °F 37.0 °F 93% 29.80 in 10.0 mi North 11.5 mph - N/A   Overcast
8:53 PM 39.0 °F 33.4 °F 37.0 °F 93% 29.79 in 10.0 mi NNE 8.1 mph - N/A   Overcast
9:53 PM 39.9 °F 34.5 °F 35.1 °F 83% 29.78 in 10.0 mi NNE 8.1 mph - N/A   Overcast
10:53 PM 39.9 °F 33.4 °F 35.1 °F 83% 29.78 in 10.0 mi North 10.4 mph - N/A   Overcast
11:53 PM 39.0 °F 32.3 °F 34.0 °F 82% 29.78 in 10.0 mi NNE 10.4 mph - N/A   Overcast